Weather History for Akron, OH

Change the Weather History Date:

Saturday, April 12, 2014

  Actual Average (KCAK) Record (KCAK)
Temperature  
Mean Temperature 56 °F 48 °F  
Max Temperature 73 °F 58 °F 82 °F (1977)
Min Temperature 39 °F 38 °F 18 °F (1976)
Degree Days  
Heating Degree Days 10 17  
Month to date heating degree days 230  
Since 1 July heating degree days 5625  
Cooling Degree Days 0 0  
Month to date cooling degree days 0  
Year to date cooling degree days 0  
Growing Degree Days 6 (Base 50)    
Moisture  
Dew Point 40 °F    
Average Humidity 64    
Maximum Humidity 97    
Minimum Humidity 26    
Precipitation  
Precipitation 0.00 in 0.13 in 1.13 in (1997)
Month to date precipitation 1.44  
Year to date precipitation 9.34  
Snow  
Snow 0.00 in 0.10 in - ()
Month to date snowfall 1.7  
Since 1 July snowfall 46.4  
Snow Depth -    
Sea Level Pressure  
Sea Level Pressure 30.08 in    
Wind  
Wind Speed 5 mph (South)    
Max Wind Speed 20 mph    
Max Gust Speed 26 mph    
Visibility 8 miles    
Events Fog    
T = Trace of Precipitation, MM = Missing Value Source: NWS Daily Summary

Daily Weather History Graph

Daily Weather History Graph

Search for Another Location

Airport:

Trip Planner

Search our weather history database for the weather conditions in past years. The results will help you decide how hot, cold, wet, or windy it might be!

Date:

Astronomy

Apr. 12, 2014 Rise Set
Actual Time 6:51 AM EDT 8:02 PM EDT
Civil Twilight 6:23 AM EDT 8:30 PM EDT
Nautical Twilight 5:49 AM EDT 9:04 PM EDT
Astronomical Twilight 5:13 AM EDT 9:40 PM EDT
Moon 5:38 PM EDT (4/12) 5:18 AM EDT (4/12)
Length of Visible Light 14h 07m
Length of Day
13h 11m
Waxing Gibbous, 93% of the Moon is Illuminated
Apr 12
Waxing Gibbous
Apr 15
Full
Apr 22
Last Quarter
Apr 29
New
May 6
First Quarter

Hourly Weather History & Observations

Time (EDT) Temp. Windchill Dew Point Humidity Pressure Visibility Wind Dir Wind Speed Gust Speed Precip Events Conditions
12:54 AM 48.0 °F - 42.1 °F 80% 30.09 in 10.0 mi SSW 5.8 mph - N/A   Clear
1:54 AM 46.0 °F 44.8 °F 41.0 °F 83% 30.10 in 10.0 mi SSW 3.5 mph - N/A   Clear
2:54 AM 44.1 °F - 39.9 °F 85% 30.10 in 9.0 mi Calm Calm - N/A   Clear
3:54 AM 44.1 °F 42.5 °F 39.9 °F 85% 30.12 in 8.0 mi SSW 3.5 mph - N/A   Clear
4:54 AM 45.0 °F - 41.0 °F 86% 30.14 in 10.0 mi Calm Calm - N/A   Clear
5:54 AM 41.0 °F - 37.9 °F 89% 30.15 in 6.0 mi Calm Calm - N/A   Clear
6:54 AM 39.9 °F - 37.0 °F 89% 30.16 in 4.0 mi Calm Calm - N/A   Clear
7:04 AM 39.0 °F - 37.0 °F 93% 30.15 in 2.0 mi Calm Calm - N/A   Clear
7:19 AM 39.0 °F - 37.0 °F 93% 30.16 in 0.5 mi Calm Calm - N/A Fog Fog
7:27 AM 39.0 °F - 37.0 °F 93% 30.16 in 0.2 mi Calm Calm - N/A Fog Fog
7:33 AM 39.0 °F - 37.9 °F 96% 30.16 in 1.2 mi Calm Calm - N/A   Clear
7:40 AM 39.9 °F - 39.0 °F 97% 30.16 in 3.0 mi Calm Calm - N/A   Clear
7:50 AM 41.0 °F - 39.2 °F 93% 30.16 in 2.5 mi Calm Calm - N/A   Clear
7:54 AM 42.1 °F - 39.9 °F 92% 30.17 in 3.0 mi Calm Calm - N/A   Clear
8:54 AM 52.0 °F - 45.0 °F 77% 30.17 in 10.0 mi SSW 10.4 mph - N/A   Clear
9:54 AM 55.9 °F - 45.0 °F 67% 30.17 in 10.0 mi SSW 13.8 mph - N/A   Clear
10:54 AM 61.0 °F - 43.0 °F 52% 30.17 in 10.0 mi SSW 10.4 mph - N/A   Clear
11:54 AM 64.9 °F - 43.0 °F 45% 30.15 in 10.0 mi South 13.8 mph 18.4 mph N/A   Clear
12:54 PM 66.9 °F - 37.0 °F 33% 30.11 in 10.0 mi SSW 16.1 mph - N/A   Clear
1:54 PM 70.0 °F - 35.1 °F 28% 30.08 in 10.0 mi South 18.4 mph 25.3 mph N/A   Clear
2:54 PM 71.1 °F - 34.0 °F 26% 30.06 in 10.0 mi SSW 16.1 mph - N/A   Clear
3:54 PM 71.1 °F - 35.1 °F 27% 30.04 in 10.0 mi SSW 19.6 mph 26.5 mph N/A   Clear
4:54 PM 71.1 °F - 36.0 °F 28% 30.01 in 10.0 mi South 13.8 mph 20.7 mph N/A   Clear
5:54 PM 72.0 °F - 39.0 °F 30% 29.99 in 10.0 mi South 15.0 mph - N/A   Clear
6:54 PM 71.1 °F - 39.9 °F 32% 29.97 in 10.0 mi South 16.1 mph - N/A   Clear
7:54 PM 69.1 °F - 41.0 °F 36% 29.96 in 10.0 mi South 6.9 mph - N/A   Partly Cloudy
8:54 PM 68.0 °F - 41.0 °F 37% 29.94 in 10.0 mi SSE 5.8 mph - N/A   Overcast
9:54 PM 66.9 °F - 42.1 °F 40% 29.92 in 10.0 mi SSE 6.9 mph - N/A   Partly Cloudy
10:54 PM 64.0 °F - 43.0 °F 46% 29.91 in 10.0 mi South 5.8 mph - N/A   Clear
11:54 PM 63.0 °F - 43.0 °F 48% 29.90 in 10.0 mi South 4.6 mph - N/A   Clear